Regional Weather Roundup
Issued by NWS

Home | Current Version | Previous Version | Text Only | Print | Product List | Glossary On
Versions: 1 2 3 4 5 6 7 8 9 10 11 12 13 14 15 16 17 18 19 20 21 22 23 24 25 26 27
000
ASUS46 KPQR 221410
RWROR

OREGON REGIONAL WEATHER ROUNDUP
NATIONAL WEATHER SERVICE PORTLAND OR
700 AM PDT FRI SEP 22 2017

NOTE: "FAIR" INDICATES FEW OR NO CLOUDS BELOW 12,000 FEET WITH
NO SIGNIFICANT WEATHER AND/OR OBSTRUCTIONS TO VISIBILITY.

ORZ001>013-221500-
NORTHWEST OREGON


CITY           SKY/WX    TMP DP  RH WIND       PRES   REMARKS
ASTORIA        CLOUDY    43  42  97 E3        30.04R FOG
NEWPORT        FOG       46  46 100 CALM      30.07R VSB 1/2
PORTLAND       CLOUDY    50  49  96 W3        30.05R
VANCOUVER WA   CLOUDY    50  49  96 CALM      30.05R
SCAPPOOSE      CLOUDY    48  48 100 CALM      30.04R
HILLSBORO      CLOUDY    46  44  93 CALM      30.05R
AURORA         CLOUDY    50  47  89 CALM      30.06R
MCMINNVILLE    CLOUDY    45  45 100 CALM      30.06R
SALEM          MOCLDY    46  44  93 CALM      30.04R
CORVALLIS      FOG       45  45 100 CALM      30.06R VSB<1/4
EUGENE         CLOUDY    46  45  96 S3        30.05R
$$

ORZ021-028-221500-
SOUTHWEST OREGON


CITY           SKY/WX    TMP DP  RH WIND       PRES   REMARKS
NORTH BEND     CLOUDY    47  47 100 SE6       30.05R
BROOKINGS      CLEAR     46  44  93 CALM      29.97R
ROSEBURG       CLOUDY    44  42  93 N3        30.04R FOG
GRANTS PASS    CLOUDY    37  36  93 CALM      30.06R
MEDFORD        PTCLDY    39  38  96 CALM      30.02R
$$

ORZ014>016-041-221500-
COLUMBIA GORGE


CITY           SKY/WX    TMP DP  RH WIND       PRES   REMARKS
TROUTDALE      MOCLDY    50  47  89 CALM      30.04R
HOOD RIVER     CLOUDY    46  45  93 CALM      30.03R
THE DALLES     CLOUDY    53  48  83 W5        30.01R
$$

ORZ029>031-041-044-049-050-061>064-502-503-505>511-221500-
EASTERN OREGON


CITY           SKY/WX    TMP DP  RH WIND       PRES   REMARKS
MADRAS         CLOUDY   N/A N/A N/A CALM      30.02S
REDMOND        MOCLDY    37  34  89 CALM      30.00R
BEND           MOCLDY    39  36  87 W5        30.01R
PRINEVILLE     MOCLDY    36  34  93 N5        30.01R WCI  32
KLAMATH FALLS  CLEAR     28  24  85 CALM      29.98R
LAKEVIEW       PTCLDY    26  25  96 N7        29.97R WCI  18
HERMISTON      CLOUDY    48  46  93 CALM      29.99R
PENDLETON      PTCLDY    42  40  92 CALM      29.98R
JOHN DAY       CLOUDY    42  37  85 CALM      29.96R
MEACHAM        CLOUDY    33  31  92 CALM      29.95S
LA GRANDE      CLEAR     36  34  92 NW12      29.96R WCI  28
BAKER CITY     PTCLDY    38  33  82 W10       29.92R WCI  31
BURNS          PTCLDY    30  30 100 W9        29.94R WCI  22
ROME             N/A     38  35  89 S6        29.92R WCI  33
ONTARIO        NOT AVBL
$$




USA.gov is the U.S. government's official web portal to all federal, state and local government web resources and services.